DELTA 1 DEB

Satellite information

Favourite Embed

Satellite Type and Status

DEBRISIN ORBIT

Key statistics

Satellite DELTA 1 DEB at a glance.

Uptime

17451

Days in orbit

Revolutions

≈ 14.4

Per day

Orbit

SSO

Sun Synchronous Orbit

Inclination

99.1

Latest

Satellite identification and parameters

Extended collection of information and parameters for DELTA 1 DEB.

Object identification

Identified? True

Debris? True

Object name: DELTA 1 DEB

International designator: 1978-026ET

Object number (NORAD): 12427

Object ID (CCSDS): 12427

Country: UNITED STATES OF AMERICA (US)

Current information (Y/N): Y

RCS size: SMALL

Orbital parameters

Period: 99.793 minutes

Inclination: 99.149 deg

SMA: 7126.768 km

Apoapsis: 821.144 km

Periapsis: 676.122 km

RAAN: 153.2185 deg

Eccentricy: 0.01017444

Argument of periapsis: 144.907 deg

Mean anomaly: 282.3616 deg

Mean motion: 14.42991576 rev/day

Mean motion (dot): 0.00005952 rev/day2

B* drag term: 0.0016836333 1/REarth

Two-line elements (TLE)

Creation date: Dec. 12, 2025, 10:14 a.m.

Reference frame: TEME

Reference center: EARTH

Epoch: Dec. 12, 2025, 3:19 a.m. UTC

TLE line 0: 0 DELTA 1 DEB

TLE line 1: 1 12427U 78026ET 25346.13829417 .00005952 00000-0 16836-2 0 9991

TLE line 2: 2 12427 99.1490 153.2185 0101744 144.9070 282.3616 14.42991576344914

Live tracking on map

Real-time ground track for satellite DELTA 1 DEB.

In-orbit conjunctions

A list of the most updated potential collisions computed for object DELTA 1 DEB.

Target Orbit TCA Probability of collision Miss distance Type
CZ-6A DEB LEO 2025-02-16 07:53:16 0.0001323566 90.0 (m) DEBRIS
CZ-6A DEB LEO 2024-12-21 17:10:52 0.0002008059 401.0 (m) DEBRIS

Associated space launch

Earth observation satellite

DELTA 1 DEB was lifted into orbit during the mission ‘Delta 2910 | Landsat 3’, on board a Delta 2910 space rocket.

The launch took place on March 5, 1978, 5:54 p.m. from Space Launch Complex 2W.

For more information about the launch, click the button.

Launch to space Delta 2910 | Landsat 3
Delta 2910 | Landsat 3

Agency: N/A

Status: Launch Successful

Launch date: March 5, 1978, 5:54 p.m. UTC

Rocket: Delta 2910

Launch pad: Space Launch Complex 2W

Location: Vandenberg SFB, CA, USA

...

Latest news about this satellite

There are no fresh news available about this satellite. Check back as we update our databases every day.


Newsletter sign-up

Weekly statistics, charts and insights to help you stay on top of the space industry.